• In Switzerland
  • List of Countries
  • For 7 days
  • Water Temperature
  • Satellite Maps
  • Weather Map
  • Weather Widgets
  • user-avatar
    Login

    Hourly Weather Holhol

    Today, 19 June, Tuesday

    Time Temperature Precipitation Wind Pressure Humidity
    00:00 +34°C° 0 mm 4 mps 709 mmHg 36%
    01:00 +34°C° 0 mm 3 mps 709 mmHg 39%
    02:00 +32°C° 0 mm 2 mps 709 mmHg 41%
    03:00 +32°C° 0 mm 1 mps 709 mmHg 42%
    04:00 +32°C° 0 mm 1 mps 709 mmHg 41%
    05:00 +31°C° 0 mm 1 mps 710 mmHg 41%
    06:00 +31°C° 0 mm 1 mps 710 mmHg 41%
    07:00 +33°C° 0 mm 1 mps 710 mmHg 37%
    08:00 +35°C° 0 mm 2 mps 711 mmHg 33%
    09:00 +36°C° 0 mm 2 mps 711 mmHg 30%
    10:00 +38°C° 0 mm 2 mps 711 mmHg 27%
    11:00 +39°C° 0 mm 2 mps 711 mmHg 24%
    12:00 +40°C° 0 mm 2 mps 711 mmHg 22%
    13:00 +40°C° 0 mm 2 mps 711 mmHg 21%
    14:00 +42°C° 0 mm 3 mps 710 mmHg 20%
    15:00 +43°C° 0 mm 4 mps 709 mmHg 17%
    16:00 +43°C° 0 mm 4 mps 709 mmHg 20%
    17:00 +42°C° 0 mm 4 mps 709 mmHg 22%
    18:00 +41°C° 0 mm 4 mps 709 mmHg 25%
    19:00 +38°C° 0 mm 4 mps 709 mmHg 29%
    20:00 +37°C° 0 mm 4 mps 710 mmHg 33%
    21:00 +36°C° 0 mm 3 mps 710 mmHg 37%
    22:00 +35°C° 0 mm 3 mps 710 mmHg 39%
    23:00 +35°C° 0 mm 3 mps 710 mmHg 41%

    Tomorrow, 20 June, Wednesday

    Time Temperature Precipitation Wind Pressure Humidity
    00:00 +34°C° 0 mm 2 mps 710 mmHg 43%
    01:00 +34°C° 0 mm 2 mps 710 mmHg 44%
    02:00 +34°C° 0 mm 2 mps 710 mmHg 44%
    03:00 +32°C° 0 mm 1 mps 710 mmHg 44%
    04:00 +32°C° 0 mm 1 mps 710 mmHg 44%
    05:00 +32°C° 0 mm 1 mps 711 mmHg 43%
    06:00 +30°C° 0 mm 0 mps 711 mmHg 43%
    07:00 +33°C° 0 mm 1 mps 711 mmHg 38%
    08:00 +36°C° 0 mm 2 mps 712 mmHg 33%
    09:00 +37°C° 0 mm 3 mps 712 mmHg 28%
    10:00 +38°C° 0 mm 3 mps 712 mmHg 26%
    11:00 +39°C° 0 mm 3 mps 712 mmHg 23%
    12:00 +40°C° 0 mm 3 mps 712 mmHg 21%
    13:00 +42°C° 0 mm 3 mps 712 mmHg 20%
    14:00 +42°C° 0 mm 3 mps 711 mmHg 19%
    15:00 +43°C° 0 mm 3 mps 711 mmHg 18%
    16:00 +42°C° 0 mm 3 mps 710 mmHg 19%
    17:00 +42°C° 0 mm 3 mps 710 mmHg 20%
    18:00 +40°C° 0 mm 3 mps 710 mmHg 22%
    19:00 +39°C° 0 mm 3 mps 710 mmHg 26%
    20:00 +38°C° 0 mm 3 mps 711 mmHg 30%
    21:00 +37°C° 0 mm 3 mps 711 mmHg 34%
    22:00 +36°C° 0 mm 3 mps 711 mmHg 35%
    23:00 +36°C° 0 mm 2 mps 711 mmHg 36%

    Day after tomorrow, 21 June, Thursday

    Time Temperature Precipitation Wind Pressure Humidity
    00:00 +36°C° 0 mm 2 mps 711 mmHg 37%
    01:00 +35°C° 0 mm 2 mps 711 mmHg 37%
    02:00 +34°C° 0 mm 1 mps 711 mmHg 38%
    03:00 +34°C° 0 mm 1 mps 711 mmHg 38%
    04:00 +33°C° 0 mm 1 mps 711 mmHg 38%
    05:00 +34°C° 0 mm 2 mps 711 mmHg 37%
    06:00 +34°C° 0 mm 2 mps 711 mmHg 37%
    07:00 +36°C° 0 mm 3 mps 712 mmHg 33%
    08:00 +37°C° 0 mm 5 mps 712 mmHg 29%
    09:00 +40°C° 0 mm 6 mps 713 mmHg 25%
    10:00 +41°C° 0 mm 6 mps 713 mmHg 23%
    11:00 +42°C° 0 mm 6 mps 713 mmHg 20%
    12:00 +44°C° 0 mm 6 mps 712 mmHg 18%
    13:00 +43°C° 0 mm 5 mps 712 mmHg 17%
    14:00 +44°C° 0 mm 4 mps 711 mmHg 16%
    15:00 +44°C° 0 mm 4 mps 710 mmHg 15%
    16:00 +43°C° 0 mm 4 mps 710 mmHg 17%
    17:00 +42°C° 0 mm 4 mps 710 mmHg 19%
    18:00 +42°C° 0 mm 4 mps 709 mmHg 21%
    19:00 +40°C° 0 mm 3 mps 710 mmHg 23%
    20:00 +39°C° 0 mm 3 mps 710 mmHg 25%
    21:00 +38°C° 0 mm 2 mps 710 mmHg 26%
    22:00 +38°C° 0 mm 2 mps 710 mmHg 28%
    23:00 +37°C° 0 mm 2 mps 710 mmHg 29%

    22 June, Friday

    Time Temperature Precipitation Wind Pressure Humidity
    00:00 +37°C° 0 mm 2 mps 710 mmHg 30%
    01:00 +36°C° 0 mm 2 mps 710 mmHg 31%
    02:00 +36°C° 0 mm 2 mps 710 mmHg 31%
    03:00 +36°C° 0 mm 2 mps 709 mmHg 32%
    04:00 +35°C° 0 mm 3 mps 709 mmHg 33%
    05:00 +35°C° 0 mm 3 mps 709 mmHg 33%
    06:00 +34°C° 0 mm 3 mps 709 mmHg 34%
    07:00 +36°C° 0 mm 4 mps 710 mmHg 30%
    08:00 +39°C° 0 mm 6 mps 711 mmHg 26%
    09:00 +40°C° 0 mm 7 mps 711 mmHg 22%
    10:00 +43°C° 0 mm 7 mps 711 mmHg 19%
    11:00 +44°C° 0 mm 7 mps 711 mmHg 16%
    12:00 +45°C° 0 mm 7 mps 711 mmHg 13%
    13:00 +45°C° 0 mm 6 mps 710 mmHg 13%
    14:00 +45°C° 0 mm 6 mps 709 mmHg 13%
    15:00 +46°C° 0 mm 5 mps 709 mmHg 12%
    16:00 +45°C° 0 mm 5 mps 709 mmHg 15%
    17:00 +43°C° 0 mm 5 mps 708 mmHg 19%
    18:00 +41°C° 0 mm 5 mps 708 mmHg 22%
    19:00 +41°C° 0 mm 4 mps 709 mmHg 25%
    20:00 +39°C° 0 mm 3 mps 709 mmHg 29%
    21:00 +38°C° 0 mm 2 mps 709 mmHg 32%
    22:00 +37°C° 0 mm 2 mps 709 mmHg 35%
    23:00 +36°C° 0 mm 2 mps 709 mmHg 37%

    23 June, Saturday

    Time Temperature Precipitation Wind Pressure Humidity
    00:00 +36°C° 0 mm 2 mps 710 mmHg 40%
    01:00 +35°C° 0 mm 2 mps 709 mmHg 40%
    02:00 +35°C° 0 mm 2 mps 709 mmHg 40%
    03:00 +34°C° 0 mm 1 mps 709 mmHg 40%
    04:00 +35°C° 0 mm 2 mps 709 mmHg 39%
    05:00 +35°C° 0 mm 2 mps 710 mmHg 37%
    06:00 +35°C° 0 mm 3 mps 710 mmHg 36%
    07:00 +36°C° 0 mm 3 mps 711 mmHg 33%
    08:00 +37°C° 0 mm 4 mps 711 mmHg 31%
    09:00 +37°C° 0 mm 4 mps 712 mmHg 28%
    10:00 +40°C° 0 mm 5 mps 712 mmHg 25%
    11:00 +41°C° 0 mm 5 mps 711 mmHg 21%
    12:00 +42°C° 0 mm 5 mps 711 mmHg 17%
    13:00 +43°C° 0 mm 5 mps 710 mmHg 17%
    14:00 +43°C° 0 mm 5 mps 710 mmHg 16%
    15:00 +43°C° 0 mm 4 mps 709 mmHg 16%
    16:00 +42°C° 0 mm 5 mps 709 mmHg 20%
    17:00 +41°C° 0 mm 5 mps 709 mmHg 23%
    18:00 +40°C° 0 mm 6 mps 709 mmHg 27%
    19:00 +40°C° 0 mm 5 mps 709 mmHg 28%
    20:00 +39°C° 0 mm 5 mps 710 mmHg 29%
    21:00 +37°C° 0 mm 4 mps 710 mmHg 30%
    22:00 +37°C° 0 mm 4 mps 710 mmHg 31%
    23:00 +37°C° 0 mm 4 mps 710 mmHg 32%

    24 June, Sunday

    Time Temperature Precipitation Wind Pressure Humidity
    00:00 +36°C° 0 mm 3 mps 710 mmHg 33%
    01:00 +36°C° 0 mm 3 mps 709 mmHg 33%
    02:00 +36°C° 0 mm 3 mps 709 mmHg 33%
    03:00 +36°C° 0 mm 3 mps 708 mmHg 34%
    04:00 +35°C° 0 mm 3 mps 709 mmHg 34%
    05:00 +35°C° 0 mm 3 mps 709 mmHg 35%
    06:00 +34°C° 0 mm 3 mps 710 mmHg 35%
    07:00 +35°C° 0 mm 4 mps 710 mmHg 33%
    08:00 +36°C° 0 mm 6 mps 711 mmHg 30%
    09:00 +38°C° 0 mm 7 mps 711 mmHg 27%
    10:00 +40°C° 0 mm 7 mps 711 mmHg 25%
    11:00 +41°C° 0 mm 7 mps 711 mmHg 22%
    12:00 +42°C° 0 mm 6 mps 710 mmHg 19%
    13:00 +43°C° 0 mm 5 mps 710 mmHg 19%
    14:00 +43°C° 0 mm 5 mps 709 mmHg 18%
    15:00 +44°C° 0 mm 4 mps 708 mmHg 17%
    16:00 +43°C° 0 mm 4 mps 708 mmHg 19%
    17:00 +42°C° 0 mm 5 mps 709 mmHg 21%
    18:00 +41°C° 0 mm 5 mps 709 mmHg 23%
    19:00 +40°C° 0 mm 4 mps 709 mmHg 25%
    20:00 +38°C° 0 mm 3 mps 709 mmHg 28%
    21:00 +38°C° 0 mm 2 mps 710 mmHg 31%
    22:00 +37°C° 0 mm 2 mps 710 mmHg 31%
    23:00 +37°C° 0 mm 2 mps 710 mmHg 31%
    Show more